time_stamp(utc),avg(mph),gust(mph),direction(deg),12m_air_temp(f),sonic_u(cm/s),sonic_v(cm/s),sonic_w(cm/s),pressure,2m_air_temp(f),pyranometer(W/m^2)
"2016-12-19 00:00:21+00",22.6,25.6,,43.8,-264,950,25,1024.68,43.6,0
"2016-12-19 00:05:21+00",25.0,27.0,,43.3,-52,1103,17,1024.77,43.1,0
"2016-12-19 00:10:21+00",16.6,20.6,,42.8,61,722,7,1024.21,42.6,0
"2016-12-19 00:15:21+00",20.5,26.5,,42.5,-178,889,55,1024.62,42.2,0
"2016-12-19 00:20:21+00",23.6,27.6,,42.5,-232,1024,51,1024.92,42.1,0
"2016-12-19 00:25:21+00",28.5,31.5,,42.3,-238,1239,32,1024.89,41.8,0
"2016-12-19 00:30:21+00",20.3,23.3,,41.8,68,884,54,1025.04,41.5,0
"2016-12-19 00:35:21+00",20.0,24.0,,41.7,-186,865,55,1025.31,41.4,0
"2016-12-19 00:40:21+00",24.8,29.8,,41.7,-114,1086,23,1025.74,41.2,0
"2016-12-19 00:45:21+00",19.7,22.7,,41.5,-91,856,23,1025.6,41.1,0
"2016-12-19 00:50:21+00",19.4,23.4,,41.5,-234,817,43,1026.14,41,0
"2016-12-19 00:55:21+00",17.1,18.1,,41.4,-162,735,17,1026.26,40.9,0
"2016-12-19 01:00:21+00",13.1,15.1,,41.3,-14,573,27,1026.05,40.9,0
"2016-12-19 01:05:21+00",18.5,20.5,,41.2,-107,813,16,1025.85,40.7,0
"2016-12-19 01:10:21+00",14.0,17.0,,40.9,-102,607,27,1025.98,40.5,0
"2016-12-19 01:15:21+00",13.2,17.2,,40.7,-54,575,22,1025.83,40.4,0
"2016-12-19 01:20:21+00",13.0,15.0,,40.8,4,571,4,1025.9,40.4,0
"2016-12-19 01:25:21+00",17.7,20.7,,40.8,-67,773,23,1025.97,40.3,0
"2016-12-19 01:30:21+00",18.4,23.4,,40.6,-173,783,29,1026.42,40.2,0
"2016-12-19 01:35:21+00",23.8,27.8,,40.7,-280,1013,41,1027.36,40.1,0
"2016-12-19 01:40:21+00",20.0,23.0,,40.4,-125,866,20,1027,39.9,0
"2016-12-19 01:45:21+00",18.3,21.3,,40.3,-249,769,26,1027.13,39.7,0
"2016-12-19 01:50:21+00",17.2,20.2,,40.2,-131,745,36,1027.02,39.7,0
"2016-12-19 01:55:21+00",18.2,22.2,,40.1,-106,796,27,1027.2,39.6,0
"2016-12-19 02:00:21+00",19.9,22.9,,40.1,-155,863,26,1027.36,39.6,0
"2016-12-19 02:05:21+00",15.0,19.0,,39.8,-238,634,26,1028.23,39.4,0
"2016-12-19 02:10:21+00",17.8,20.8,,40,-273,738,16,1028.44,39.4,0
"2016-12-19 02:15:21+00",16.3,20.3,,39.9,-276,668,39,1028.44,39.4,0
"2016-12-19 02:20:21+00",15.1,18.1,,39.7,-198,644,47,1028.48,39.2,0
"2016-12-19 02:25:21+00",16.9,18.9,,39.6,-325,675,40,1028.32,39.1,0
"2016-12-19 02:30:21+00",13.3,16.3,,39.3,-176,556,31,1028.67,38.9,0
"2016-12-19 02:35:21+00",17.5,20.5,,39.3,-177,748,19,1028.77,38.9,0
"2016-12-19 02:40:21+00",15.7,17.7,,39,-272,636,32,1028.97,38.7,0
"2016-12-19 02:45:21+00",17.1,20.1,,38.9,-185,734,38,1028.85,38.5,0
"2016-12-19 02:50:21+00",13.9,15.9,,38.8,-194,576,21,1028.99,38.4,0
"2016-12-19 02:55:21+00",17.6,19.6,,38.5,-199,765,27,1029.13,38.2,0
"2016-12-19 03:00:21+00",16.6,18.6,,38.4,-188,705,16,1029.46,38,0
"2016-12-19 03:05:21+00",14.1,16.1,,38.4,-189,589,30,1029.57,37.9,0
"2016-12-19 03:10:21+00",19.1,21.1,,38.4,-258,789,22,1029.98,37.8,0
"2016-12-19 03:15:21+00",14.2,17.2,,38.1,-184,590,27,1029.72,37.7,0
"2016-12-19 03:20:21+00",13.1,15.1,,38.1,-147,552,15,1029.88,37.5,0
"2016-12-19 03:25:21+00",19.6,22.6,,37.9,-245,826,26,1029.95,37.4,0
"2016-12-19 03:30:21+00",20.1,26.1,,37.7,-153,871,41,1029.92,37.2,0
"2016-12-19 03:35:21+00",21.1,24.1,,37.5,-271,889,14,1030.16,37,0
"2016-12-19 03:40:21+00",14.6,16.6,,37.3,-163,619,31,1030.41,36.9,0
"2016-12-19 03:45:21+00",14.5,16.5,,37,-172,615,23,1030.73,36.6,0
"2016-12-19 03:50:21+00",15.1,17.1,,37,-186,631,26,1031.02,36.5,0
"2016-12-19 03:55:21+00",15.5,19.5,,36.9,-293,616,51,1031.07,36.3,0
"2016-12-19 04:00:21+00",18.6,21.6,,36.8,-323,748,34,1031.03,36.2,0
"2016-12-19 04:05:21+00",16.1,21.1,,36.5,-202,684,25,1031.03,36,0
"2016-12-19 04:10:21+00",17.1,21.1,,36.4,-121,732,20,1030.97,35.8,0
"2016-12-19 04:15:21+00",16.9,19.9,,36.3,-169,734,44,1031.2,35.7,0
"2016-12-19 04:20:21+00",18.5,21.5,,36.2,-176,793,29,1031.25,35.6,0
"2016-12-19 04:25:21+00",17.9,20.9,,36,-180,778,27,1031.16,35.5,0
"2016-12-19 04:30:21+00",13.8,15.8,,35.8,-176,584,33,1031.24,35.3,0
"2016-12-19 04:35:21+00",17.2,19.2,,35.6,-141,741,15,1031.41,35,0
"2016-12-19 04:40:21+00",14.2,17.2,,35.4,-79,621,20,1031.05,34.8,0
"2016-12-19 04:45:21+00",13.0,15.0,,35.2,-94,567,22,1031.01,34.6,0
"2016-12-19 04:50:21+00",16.4,19.4,,35.2,-105,718,14,1031.04,34.4,0
"2016-12-19 04:55:21+00",14.6,17.6,,35.1,-65,637,15,1031.21,34.4,0
"2016-12-19 05:00:21+00",14.6,16.6,,34.9,-151,629,37,1031.53,34.3,0
"2016-12-19 05:05:21+00",14.7,16.7,,34.7,-152,630,31,1031.4,34.1,0
"2016-12-19 05:10:21+00",18.6,23.6,,34.7,-54,804,29,1031.54,33.9,0
"2016-12-19 05:15:21+00",14.5,17.5,,34.5,-79,636,22,1031.72,33.9,0
"2016-12-19 05:20:21+00",13.4,16.4,,34.4,-133,574,26,1031.87,33.8,0
"2016-12-19 05:25:21+00",15.9,17.9,,34.4,-188,687,36,1032.09,33.8,0
"2016-12-19 05:30:21+00",11.6,13.6,,34.1,-98,504,29,1031.82,33.6,0
"2016-12-19 05:35:21+00",15.4,18.4,,34,-104,664,25,1031.91,33.5,0
"2016-12-19 05:40:21+00",14.9,17.9,,34,-139,646,15,1032.01,33.4,0
"2016-12-19 05:45:21+00",11.6,13.6,,33.7,-63,496,28,1032.01,33.3,0
"2016-12-19 05:50:21+00",13.2,15.2,,33.6,-104,569,25,1032.13,33.1,0
"2016-12-19 05:55:21+00",12.0,14.0,,33.5,-111,514,31,1032.16,32.9,0
"2016-12-19 06:00:21+00",13.1,16.1,,33.5,-120,555,15,1032.25,32.9,0
"2016-12-19 06:05:21+00",14.2,17.2,,33.3,-28,617,12,1032.04,32.8,0
"2016-12-19 06:10:21+00",12.2,15.2,,33.2,-58,532,15,1032.35,32.7,0
"2016-12-19 06:15:21+00",12.9,14.9,,33.1,-58,563,17,1032.31,32.6,0
"2016-12-19 06:20:21+00",10.3,12.3,,32.9,-32,443,23,1032.27,32.5,0
"2016-12-19 06:25:21+00",12.5,14.5,,32.8,-32,551,12,1032.12,32.2,0
"2016-12-19 06:30:21+00",14.0,16.0,,32.7,-59,618,11,1032.27,32,0
"2016-12-19 06:35:21+00",12.3,14.3,,32.6,16,539,6,1032.44,31.9,0
"2016-12-19 06:40:21+00",9.8,10.8,,32.4,15,429,22,1032.39,31.7,0
"2016-12-19 06:45:21+00",13.0,14.0,,32.3,-38,568,6,1032.72,31.6,0
"2016-12-19 06:50:21+00",13.9,16.9,,32.2,-32,610,4,1032.98,31.5,0
"2016-12-19 06:55:21+00",14.3,16.3,,32.2,-91,629,17,1032.97,31.5,0
"2016-12-19 07:00:21+00",12.6,15.6,,32.1,-33,556,18,1033.18,31.5,0
"2016-12-19 07:05:21+00",15.0,18.0,,32.1,-106,652,15,1033.36,31.4,0
"2016-12-19 07:10:21+00",12.0,14.0,,32,-102,509,19,1033.49,31.4,0
"2016-12-19 07:15:21+00",9.8,11.8,,31.8,-99,410,21,1033.7,31.3,0
"2016-12-19 07:20:21+00",12.5,14.5,,31.7,-98,539,16,1033.43,31.1,0
"2016-12-19 07:25:21+00",10.2,11.2,,31.6,-78,437,10,1033.71,31,0
"2016-12-19 07:30:21+00",13.3,15.3,,31.6,-114,564,26,1033.71,31,0
"2016-12-19 07:35:21+00",13.7,16.7,,31.6,-93,599,20,1033.87,31,0
"2016-12-19 07:40:21+00",13.2,16.2,,31.5,-133,573,15,1034.13,30.9,0
"2016-12-19 07:45:21+00",10.3,12.3,,31.4,-112,435,21,1034.11,30.9,0
"2016-12-19 07:50:21+00",11.8,13.8,,31.4,-166,487,12,1034.53,30.9,0
"2016-12-19 07:55:21+00",10.5,12.5,,31.3,-74,451,16,1034.51,30.8,0
"2016-12-19 08:00:21+00",8.9,10.9,,31.1,-31,388,23,1034.43,30.7,0
"2016-12-19 08:05:21+00",10.4,12.4,,31.1,-54,452,19,1034.4,30.6,0
"2016-12-19 08:10:21+00",9.2,11.2,,31.1,-73,395,15,1034.67,30.6,0
"2016-12-19 08:15:21+00",10.2,11.2,,31.2,-98,433,17,1034.72,30.6,0
"2016-12-19 08:20:21+00",11.1,14.1,,31.2,-115,468,19,1034.88,30.6,0
"2016-12-19 08:25:21+00",10.6,13.6,,31.1,-94,450,23,1034.85,30.6,0
"2016-12-19 08:30:21+00",9.9,11.9,,31.1,-111,418,35,1035.02,30.6,0
"2016-12-19 08:35:21+00",10.0,12.0,,31,-132,412,16,1034.93,30.6,0
"2016-12-19 08:40:21+00",9.4,11.4,,30.9,-163,377,28,1035.26,30.5,0
"2016-12-19 08:45:21+00",11.4,12.4,,30.9,-174,466,15,1035.17,30.5,0
"2016-12-19 08:50:21+00",12.8,14.8,,30.9,-245,501,21,1035.16,30.4,0
"2016-12-19 08:55:21+00",10.9,13.9,,30.9,-232,433,32,1035.27,30.4,0
"2016-12-19 09:00:21+00",12.0,15.0,,30.9,-202,503,24,1035.36,30.5,0
"2016-12-19 09:05:21+00",10.6,13.6,,30.9,-215,405,27,1035.36,30.5,0
"2016-12-19 09:10:21+00",14.9,16.9,,30.8,-240,606,22,1035.44,30.5,0
"2016-12-19 09:15:21+00",14.5,18.5,,30.8,-164,618,11,1035.4,30.4,0
"2016-12-19 09:20:21+00",10.8,13.8,,30.6,-106,459,22,1035.46,30.3,0
"2016-12-19 09:25:21+00",11.2,13.2,,30.5,-99,480,14,1035.52,30.2,0
"2016-12-19 09:30:21+00",11.8,13.8,,30.4,-131,495,13,1035.81,30.1,0
"2016-12-19 09:35:21+00",12.6,16.6,,30.4,-77,545,17,1035.71,30,0
"2016-12-19 09:40:21+00",14.0,17.0,,30.3,-102,609,21,1035.69,29.9,0
"2016-12-19 09:45:21+00",12.8,14.8,,30.3,-78,554,19,1035.84,29.9,0
"2016-12-19 09:50:21+00",11.4,12.4,,30.3,-118,486,12,1036.06,29.9,0
"2016-12-19 09:55:21+00",14.5,17.5,,30.3,-93,635,23,1036.32,29.8,0
"2016-12-19 10:00:21+00",10.9,12.9,,30.2,-185,445,21,1036.47,29.8,0
"2016-12-19 10:05:21+00",10.6,12.6,,30.2,-181,432,35,1036.9,29.8,0
"2016-12-19 10:10:21+00",8.6,10.6,,30.1,-163,346,27,1037.1,29.7,0
"2016-12-19 10:15:21+00",9.2,11.2,,30.1,-74,381,-4,1037.02,29.7,0
"2016-12-19 10:20:21+00",9.8,11.8,,30.1,-101,417,14,1037.04,29.6,0
"2016-12-19 10:25:21+00",8.8,10.8,,29.9,-70,380,19,1037.11,29.5,0
"2016-12-19 10:30:21+00",8.6,9.6,,29.8,-107,358,13,1037.24,29.5,0
"2016-12-19 10:35:21+00",8.3,9.3,,29.7,-100,339,18,1037.17,29.4,0
"2016-12-19 10:40:21+00",9.7,10.7,,29.7,-101,408,10,1037.27,29.3,0
"2016-12-19 10:45:21+00",13.4,14.4,,29.6,-148,565,3,1037.19,29.2,0
"2016-12-19 10:50:21+00",11.4,13.4,,29.5,-126,484,16,1037.13,29.2,0
"2016-12-19 10:55:21+00",13.3,15.3,,29.4,-130,563,21,1037.02,29.1,0
"2016-12-19 11:00:21+00",13.1,14.1,,29.4,-104,566,11,1037.17,29.1,0
"2016-12-19 11:05:21+00",11.5,13.5,,29.3,-93,499,16,1037.36,29,0
"2016-12-19 11:10:21+00",15.7,18.7,,29.3,-73,681,14,1037.22,28.9,0
"2016-12-19 11:15:21+00",11.9,14.9,,29.1,-48,520,17,1037.24,28.8,0
"2016-12-19 11:20:21+00",16.1,18.1,,29,-54,700,16,1037.35,28.7,0
"2016-12-19 11:25:21+00",17.0,19.0,,28.8,32,743,5,1037.51,28.6,0
"2016-12-19 11:30:21+00",13.4,15.4,,28.8,-72,580,17,1037.73,28.5,0
"2016-12-19 11:35:21+00",18.0,20.0,,28.7,-10,789,21,1038.03,28.4,0
"2016-12-19 11:40:21+00",16.1,19.1,,28.5,-95,704,25,1038.07,28.3,0
"2016-12-19 11:45:21+00",17.5,21.5,,28.4,-38,774,24,1038.26,28.1,0
"2016-12-19 11:50:21+00",15.8,19.8,,28.3,-28,701,15,1038.42,28,0
"2016-12-19 11:55:21+00",17.5,21.5,,28.1,-8,767,18,1038.16,27.9,0
"2016-12-19 12:00:21+00",16.3,21.3,,28.1,-71,729,17,1038.08,27.8,0
"2016-12-19 12:05:21+00",14.9,16.9,,27.9,-60,655,23,1037.99,27.7,0
"2016-12-19 12:10:21+00",20.0,22.0,,27.8,-178,871,23,1038.18,27.6,0
"2016-12-19 12:15:21+00",20.0,23.0,,27.7,-61,871,9,1038.1,27.5,0
"2016-12-19 12:20:21+00",19.1,22.1,,27.6,-117,829,42,1038.01,27.5,0
"2016-12-19 12:25:21+00",21.9,24.9,,27.5,-177,948,26,1038.14,27.4,0
"2016-12-19 12:30:21+00",13.9,15.9,,27.4,-162,584,36,1038.33,27.3,0
"2016-12-19 12:35:21+00",19.0,22.0,,27.4,-240,793,21,1038.57,27.2,0
"2016-12-19 12:40:21+00",15.6,17.6,,27.3,-72,680,34,1038.61,27.2,0
"2016-12-19 12:45:21+00",16.5,19.5,,27.3,-201,700,24,1038.8,27.1,0
"2016-12-19 12:50:21+00",14.1,18.1,,27.2,-100,620,29,1038.74,27.1,0
"2016-12-19 12:55:21+00",16.1,20.1,,27.2,-147,706,13,1038.89,27.1,0
"2016-12-19 13:00:21+00",14.7,16.7,,27.2,-130,628,7,1039.15,27,0
"2016-12-19 13:05:21+00",11.8,13.8,,27.2,-94,510,32,1039.28,27,0
"2016-12-19 13:10:21+00",16.7,18.7,,27.1,-86,727,16,1039.28,27,0
"2016-12-19 13:15:21+00",16.4,18.4,,27.1,-103,711,15,1039.47,27,0
"2016-12-19 13:20:21+00",16.8,18.8,,27,-63,736,1,1039.23,26.9,0
"2016-12-19 13:25:21+00",15.8,19.8,,27,-60,689,35,1039.36,26.9,0
"2016-12-19 13:30:21+00",15.1,18.1,,26.9,-224,628,36,1039.75,26.9,0
"2016-12-19 13:35:21+00",16.3,18.3,,26.8,-246,670,21,1039.63,26.8,0
"2016-12-19 13:40:21+00",15.2,17.2,,26.7,-96,659,22,1039.81,26.8,0.6
"2016-12-19 13:45:21+00",15.4,19.4,,26.7,-4,684,33,1039.78,26.8,11
"2016-12-19 13:50:21+00",20.2,23.2,,26.5,-300,842,32,1039.84,26.8,17.9
"2016-12-19 13:55:21+00",18.7,21.7,,26.5,-298,774,50,1039.91,26.7,21.3
"2016-12-19 14:00:21+00",19.3,22.3,,26.4,-191,828,24,1040,26.7,30.1
"2016-12-19 14:05:21+00",12.9,15.9,,26.5,-116,552,50,1039.98,26.8,37.8
"2016-12-19 14:10:21+00",15.0,18.0,,26.5,-113,645,23,1040.09,26.8,43.1
"2016-12-19 14:15:21+00",15.4,18.4,,26.5,-33,671,23,1040.19,26.9,48.9
"2016-12-19 14:20:21+00",15.8,18.8,,26.5,-104,687,13,1040.3,27,54.4
"2016-12-19 14:25:21+00",15.6,17.6,,26.5,-42,676,21,1040.13,27.1,53.2
"2016-12-19 14:30:21+00",16.2,18.2,,26.5,-132,693,20,1040.05,27.1,56.3
"2016-12-19 14:35:21+00",14.9,15.9,,26.4,-101,647,16,1040.14,27.1,54.2
"2016-12-19 14:40:21+00",14.2,17.2,,26.6,-112,616,25,1040.22,27.2,51.1
"2016-12-19 14:45:21+00",14.0,15.0,,26.6,-130,606,17,1040.18,27.1,41.2
"2016-12-19 14:50:21+00",14.4,17.4,,26.6,-56,628,18,1040.15,27.1,37.6
"2016-12-19 14:55:21+00",13.6,16.6,,26.6,66,580,23,1040.13,27,43.5
"2016-12-19 15:00:21+00",13.2,15.2,,26.6,60,568,22,1040.19,27.1,92.1
"2016-12-19 15:05:21+00",14.4,16.4,,26.9,-64,633,45,1040.38,27.5,125
"2016-12-19 15:10:21+00",15.1,18.1,,26.9,13,657,12,1040.22,27.9,139.4
"2016-12-19 15:15:21+00",15.5,17.5,,27.2,-31,681,19,1039.93,28.3,159.8
"2016-12-19 15:20:21+00",15.2,18.2,,27,-127,652,33,1039.98,28.6,176.6
"2016-12-19 15:25:21+00",15.9,17.9,,26.8,-14,689,12,1039.82,28.8,184.9
"2016-12-19 15:30:21+00",14.6,16.6,,27,-31,645,27,1039.46,28.9,226.2
"2016-12-19 15:35:21+00",15.4,20.4,,27.2,-18,679,39,1039.52,29.2,215.8
"2016-12-19 15:40:21+00",17.0,19.0,,26.9,-20,753,5,1039.47,29.2,202.5
"2016-12-19 15:45:21+00",16.3,17.3,,27,-84,707,-1,1039.25,29.2,229.4
"2016-12-19 15:50:21+00",14.2,17.2,,27.8,2,614,45,1039.12,29.9,235.3
"2016-12-19 15:55:21+00",12.7,14.7,,27.7,162,502,-11,1038.93,29.7,172.9
"2016-12-19 16:00:21+00",11.3,15.3,,28.1,78,468,15,1038.92,30.1,194.2
"2016-12-19 16:05:21+00",13.8,15.8,,28,107,589,1,1038.94,30.3,201
"2016-12-19 16:10:21+00",11.7,15.7,,28.2,127,481,24,1039.06,30.5,217.6
"2016-12-19 16:15:21+00",13.1,15.1,,28.2,26,565,1,1039.04,30.8,260.8
"2016-12-19 16:20:21+00",11.0,13.0,,28.5,157,433,17,1039.06,31,243.4
"2016-12-19 16:25:21+00",9.3,14.3,,28.8,167,346,16,1039.04,31.3,258.1
"2016-12-19 16:30:21+00",14.3,17.3,,28.6,266,537,1,1038.79,31.2,255.3
"2016-12-19 16:35:21+00",9.5,12.5,,28.7,126,361,40,1038.91,31,256.4
"2016-12-19 16:40:21+00",13.9,16.9,,29.1,323,509,-16,1038.76,31.3,251.7
"2016-12-19 16:45:21+00",11.0,13.0,,29.2,64,473,22,1038.63,31.6,258.3
"2016-12-19 16:50:21+00",10.7,13.7,,29.4,227,379,27,1038.63,31.9,274.5
"2016-12-19 16:55:21+00",10.9,13.9,,29.5,235,397,31,1038.5,32,272.4
"2016-12-19 17:00:21+00",8.5,10.5,,29.3,110,328,24,1038.44,32.1,267.2
"2016-12-19 17:05:21+00",12.3,14.3,,29.1,132,504,-14,1038.25,32,278.7
"2016-12-19 17:10:21+00",10.4,12.4,,29.3,297,321,36,1038.22,32.4,279.8
"2016-12-19 17:15:21+00",9.7,10.7,,29.2,209,352,1,1038.04,32,281.4
"2016-12-19 17:20:21+00",13.6,17.6,,30.2,163,547,16,1038.02,32.7,277.3
"2016-12-19 17:25:21+00",9.3,12.3,,29.6,2,394,-1,1037.96,32.3,273.5
"2016-12-19 17:30:21+00",10.4,13.4,,30,219,368,38,1037.97,32.7,272.8
"2016-12-19 17:35:21+00",9.0,12.0,,29.8,105,361,6,1037.77,32.2,273.3
"2016-12-19 17:40:21+00",11.6,12.6,,30.2,202,436,-5,1037.87,32.6,271
"2016-12-19 17:45:21+00",9.2,11.2,,30.2,220,314,-12,1037.91,32.5,267.7
"2016-12-19 17:50:21+00",9.8,12.8,,30.1,193,366,-18,1037.74,32.5,265.2
"2016-12-19 17:55:21+00",10.7,12.7,,30.3,310,304,42,1037.59,32.9,264.9
"2016-12-19 18:00:21+00",12.4,15.4,,30.1,408,340,2,1037.64,32.8,262.5
"2016-12-19 18:05:21+00",6.9,8.9,,30.1,155,240,-10,1037.52,32.4,245
"2016-12-19 18:10:21+00",11.4,13.4,,30.2,409,282,12,1037.56,32.5,257.2
"2016-12-19 18:15:21+00",7.4,10.4,,30.3,229,210,8,1037.63,32.6,245.1
"2016-12-19 18:20:21+00",10.8,14.8,,30.5,234,390,-1,1037.51,32.5,250.9
"2016-12-19 18:25:21+00",11.9,12.9,,30.8,434,287,42,1037.55,32.8,247.6
"2016-12-19 18:30:21+00",10.2,11.2,,30.6,416,183,65,1037.44,32.9,246.5
"2016-12-19 18:35:21+00",11.0,14.0,,30.1,468,140,39,1037.43,32.9,242
"2016-12-19 18:40:21+00",12.4,14.4,,30.4,409,328,7,1037.46,32.8,220.5
"2016-12-19 18:45:21+00",11.0,13.0,,30.4,446,201,42,1037.33,32.6,220.1
"2016-12-19 18:50:21+00",11.6,13.6,,30.2,472,233,4,1037.52,32.4,211.2
"2016-12-19 18:55:21+00",8.7,11.7,,30.4,347,152,45,1037.54,32.5,224.1
"2016-12-19 19:00:21+00",7.4,9.4,,30.4,291,125,44,1037.64,32.5,224
"2016-12-19 19:05:21+00",9.7,11.7,,30.4,393,176,15,1037.46,32.9,216.3
"2016-12-19 19:10:21+00",8.0,9.0,,30.6,322,137,9,1037.53,32.9,207.2
"2016-12-19 19:15:21+00",9.2,11.2,,30.4,390,120,3,1037.5,32.7,162.9
"2016-12-19 19:20:21+00",8.3,10.3,,30.8,323,136,52,1037.48,32.9,199.1
"2016-12-19 19:25:21+00",10.3,11.3,,30.6,396,219,29,1037.54,32.8,194.5
"2016-12-19 19:30:21+00",8.1,9.1,,30.6,349,82,38,1037.53,32.6,69.3
"2016-12-19 19:35:21+00",10.1,12.1,,30.5,410,187,45,1037.66,32.1,90.7
"2016-12-19 19:40:21+00",8.9,11.9,,30.6,312,221,10,1037.69,32.2,119.3
"2016-12-19 19:45:21+00",9.1,11.1,,30.6,335,216,24,1037.7,32.2,80.2
"2016-12-19 19:50:21+00",10.2,11.2,,30.5,346,262,9,1037.73,32.1,122.2
"2016-12-19 19:55:21+00",10.2,11.2,,30.5,406,192,1,1037.75,32.1,150.1
"2016-12-19 20:00:21+00",9.9,11.9,,30.7,407,168,25,1037.77,32.2,138.3
"2016-12-19 20:05:21+00",11.7,13.7,,30.6,389,312,8,1037.67,31.9,61
"2016-12-19 20:10:21+00",11.9,13.9,,30.4,457,254,7,1037.88,31.6,59.6
"2016-12-19 20:15:21+00",10.8,12.8,,30.5,377,279,13,1037.86,31.6,106.1
"2016-12-19 20:20:21+00",11.2,12.2,,30.4,370,300,23,1037.8,31.3,79.9
"2016-12-19 20:25:21+00",11.4,12.4,,30.5,428,262,15,1037.63,31.5,85.8
"2016-12-19 20:30:21+00",12.6,13.6,,30.6,473,293,23,1037.68,31.5,58.7
"2016-12-19 20:35:21+00",11.2,13.2,,30.6,427,247,27,1037.65,31.5,38.7
"2016-12-19 20:40:21+00",12.8,13.8,,30.3,415,354,19,1037.64,31,5.6
"2016-12-19 20:45:21+00",11.8,12.8,,30.2,395,316,18,1037.71,30.7,4
"2016-12-19 20:50:21+00",10.7,12.7,,30.1,391,258,35,1037.84,30.5,1.4
"2016-12-19 20:55:21+00",11.6,12.6,,30.1,399,305,19,1037.83,30.3,0.2
"2016-12-19 21:00:21+00",9.9,11.9,,30,372,230,21,1037.92,30.1,0
"2016-12-19 21:05:21+00",10.3,11.3,,30,381,238,22,1037.9,30,0.2
"2016-12-19 21:10:21+00",9.6,11.6,,29.9,340,237,30,1037.9,29.9,0
"2016-12-19 21:15:21+00",11.9,12.9,,29.8,378,329,12,1037.95,29.7,0
"2016-12-19 21:20:21+00",9.5,11.5,,29.8,337,234,24,1037.92,29.7,0
"2016-12-19 21:25:21+00",8.9,10.9,,29.7,292,241,29,1038,29.4,0
"2016-12-19 21:30:21+00",9.3,10.3,,29.7,332,228,27,1038.07,29.4,0
"2016-12-19 21:35:21+00",10.3,12.3,,29.7,328,286,15,1038.16,29.3,0
"2016-12-19 21:40:21+00",11.5,12.5,,29.7,344,332,19,1038.21,29.2,0
"2016-12-19 21:45:21+00",9.3,10.3,,29.6,276,273,16,1038.22,29.2,0
"2016-12-19 21:50:21+00",11.3,13.3,,29.5,361,316,16,1038.29,29,0
"2016-12-19 21:55:21+00",11.7,13.7,,29.5,369,328,17,1038.36,28.8,0
"2016-12-19 22:00:21+00",11.5,13.5,,29.5,329,355,25,1038.25,28.9,0
"2016-12-19 22:05:21+00",10.1,11.1,,29.2,244,347,10,1038.33,28.6,0
"2016-12-19 22:10:21+00",12.4,14.4,,29.2,299,439,2,1038.29,28.3,0
"2016-12-19 22:15:21+00",10.1,12.1,,29,264,331,16,1038.31,28.1,0
"2016-12-19 22:20:21+00",9.6,11.6,,29,210,354,6,1038.3,28,0
"2016-12-19 22:25:21+00",10.4,11.4,,29,272,329,-1,1038.45,27.9,0
"2016-12-19 22:30:21+00",10.4,13.4,,28.8,243,375,-2,1038.55,27.8,0
"2016-12-19 22:35:21+00",12.1,14.1,,28.9,298,416,13,1038.51,27.9,0
"2016-12-19 22:40:21+00",9.7,10.7,,28.7,196,354,9,1038.61,27.7,0
"2016-12-19 22:45:21+00",10.4,12.4,,28.7,193,402,6,1038.55,27.7,0
"2016-12-19 22:50:21+00",8.4,9.4,,28.4,33,361,14,1038.62,27.5,0
"2016-12-19 22:55:21+00",7.7,8.7,,28.3,72,312,10,1038.63,27.4,0
"2016-12-19 23:00:21+00",8.0,10.0,,28.1,70,331,6,1038.53,27.2,0
"2016-12-19 23:05:21+00",9.1,11.1,,28.1,97,377,3,1038.76,27.1,0
"2016-12-19 23:10:21+00",9.5,11.5,,28,37,413,17,1038.85,26.9,0
"2016-12-19 23:15:21+00",10.0,12.0,,28,97,407,-5,1038.77,26.9,0
"2016-12-19 23:20:21+00",9.0,11.0,,28,31,390,20,1038.96,27,0
"2016-12-19 23:25:21+00",8.4,9.4,,27.8,26,361,9,1038.83,27,0
"2016-12-19 23:30:21+00",10.2,11.2,,27.7,45,446,5,1038.88,26.8,0
"2016-12-19 23:35:21+00",9.5,10.5,,27.7,34,407,2,1038.88,26.7,0
"2016-12-19 23:40:21+00",8.9,9.9,,27.5,27,384,14,1038.82,26.6,0
"2016-12-19 23:45:21+00",9.5,12.5,,27.6,29,401,15,1038.77,26.6,0
"2016-12-19 23:50:21+00",9.4,11.4,,27.6,39,402,11,1038.75,26.6,0
"2016-12-19 23:55:21+00",9.3,10.3,,27.5,5,405,10,1038.86,26.5,0
